COSMOS 1275 DEB, 17615

Orbit data source: Space-Track

COSMOS 1275 DEB, 17615 is space debris in LEO originally from a launch on Thu, 04 Jun 1981 UTC launched from the Plesetsk Missile And Space Complex (PKMTR). Debris objects in space refer to the collection of defunct objects orbiting the Earth. Examples of debris include non-operational satellites, rocket bodies, and fragments generated from explosions, collisions, or faulty payload assembly.

Loading next visibility...
Identifier
17615, 1981-053KJ
Orbit
LEO
Country
Flag of CISCIS
Related business
Manufacturer
Unknown
Mission
Spacecraft
Bus & Motor
Unknown
Mass
Unknown
Launch date (UTC)
1981-06-04 (45 years ago)
Launch vehicle
Unknown
Launch site
Plesetsk Missile And Space Complex (PKMTR)
Object type
Payload
Rocket body
Debris
Shape & HBR
Unknown shape, 0.1 m
Radar Cross Section
Small (<0.1 m²)

Expand to show TLE details & history
Last TLE update: 6 hours ago

TLE from 6 hours ago
0 COSMOS 1275 DEB
1 17615U 81053KJ  26045.46976012  .00002976  00000-0  14675-2 0  9998
2 17615  82.8555 207.2462 0037206  14.3031  40.7929 14.16866399 75813
Epoch: 2026-02-14T11:16Z
TLE epoch observation values (Epoch: 2026-02-14T11:16:27.274Z)
Latitude
54.83606°
Longitude
-96.1657°
Altitude
824.767 km
Speed
7.456 km/s
True Right ascension
14h 29m 45s
True Declination
54° 40' 32"
Sunlit
Object was in daylight at epoch
Visualization orbit readout
Latitude
Unknown
Longitude
Unknown
Altitude
Unknown
Speed
Unknown
Apparent Right ascension
Unknown
Apparent Declination
Unknown
Sunlit
N/A
Visualization observer readout
Local Sidereal Time
20:16:54
Azimuth
Unknown
Elevation
Unknown
Doppler factor
Unknown
Orbital elements
Apogee altitude
859.894 km
Perigee altitude
806.234 km
Semi-major axis
7,211.201 km
Eccentricity
0.00372
Inclination
82.8555°
RAAN
207.2462°
Arg. of periapsis
14.3031°
True anomaly
41.07243°
Mean anomaly
40.7929°
Eccentric anomaly
40.93257°
Mean motion
3.54431 °/min
Orbital period
101.57 mins
BSTAR
0.0014675
Loading maneuver chart data...
Computing Atmospheric mass density...
Loading historical data...
Loading historical data...
Loading historical data...
Loading historical data...
Loading historical data...
Loading historical data...
Loading historical data...

Documentation

Showing up to 5 results
|